Flag for Japan Weather past 2 weeks in Okayama, Japan

Now
60 °F

Cool.


Feels Like: 60 °F
Forecast: 49 / 66 °F
Wind: 1 mph from East

Location: Takamatsu

Current Time: Apr 1, 2015 at 5:46:43 AM

Latest Report: Apr 1, 2015 at 5:00 AM


Visibility: N/A

Pressure: 29.93 "Hg

Humidity: 89%

Dew point: 57 °F

Location of OkayamaLocation

Historic Weather in Okayama — Graph

°F

Okayama temperature yesterday

Maximum temperature yesterday: 72 °F (at 3:00 PM)
Minimum temperature yesterday: 47 °F (at 6:00 AM)
Average temperature yesterday: 60 °F

Past Weeks' High & Low Weather Summary

 TemperatureHumidityPressure
High72 °F (Mar 31, 3:00 PM)100% (Mar 17, 4:00 AM)30.60 "Hg (Mar 17, 4:00 AM)
Low35 °F (Mar 26, 6:00 AM)19% (Mar 26, 1:00 PM)29.74 "Hg (Mar 19, 5:00 AM)
Average53 °F64%30.13 "Hg
* Reported Mar 17 4:00 AM — Apr 1 4:00 AM, Okayama, Weather by CustomWeather, © 2015

Note: Actual official high and low records may vary slightly from our data, if they occured in-between our weather recording intervals... More about our weather records

Advertising

Okayama weather history for previous 24 hours

 ConditionsComfort  
Time TempWeatherWind HumidityBarometerVisibility
4:00 AM
Wed, Apr 1
60 °FCool.1 mph88%29.93 "HgN/A
3:00 AM61 °FLight rain. Overcast.1 mph88%29.95 "Hg5 mi
2:00 AM61 °FCool.1 mph86%29.97 "HgN/A
1:00 AM62 °FCool.1 mph81%29.99 "HgN/A
12:00 AM63 °FMild.2 mph78%30.01 "HgN/A
11:00 PM
Tue, Mar 31
63 °FMild.1 mph74%30.02 "HgN/A
10:00 PM64 °FMild.2 mph69%30.02 "HgN/A
9:00 PM65 °FOvercast.2 mph63%30.03 "Hg6 mi
8:00 PM67 °FMild.1 mph61%30.03 "HgN/A
7:00 PM67 °FMild.5 mph63%30.02 "HgN/A
6:00 PM68 °FOvercast.3 mph57%30.03 "Hg9 mi
5:00 PM69 °FMild.5 mph48%30.03 "HgN/A
4:00 PM69 °FMild.6 mph48%30.03 "HgN/A
3:00 PM72 °FOvercast.5 mph42%30.03 "Hg7 mi
2:00 PM69 °FMild.5 mph48%30.06 "HgN/A
1:00 PM67 °FMild.6 mph48%30.09 "HgN/A
11:00 AM61 °FCool.9 mph61%30.14 "HgN/A
10:00 AM62 °FRefreshingly cool.2 mph57%30.16 "HgN/A
9:00 AM57 °FPassing clouds.3 mph68%30.17 "Hg6 mi
8:00 AM53 °FCool.1 mph75%30.18 "HgN/A
7:00 AM48 °FCool.1 mph85%30.18 "HgN/A
6:00 AM47 °FSunny.2 mph87%30.17 "Hg6 mi
5:00 AM47 °FCool.2 mph86%30.16 "HgN/A
Weather by CustomWeather, © 2015

See weather overviewHow to use our weather pages